Wind_Speed
20 19 18 17 16 16 17 21 20 19 18 16 14 13 12 11 10 8 7 6 6 7 8 9 10 10 10 10 10 10 11 10 10 10 9 8 7 6 5 4 3 2 1 1 2 3 3 4 4
21 20 19 18 17 15 18 23 22 21 19 17 15 14 14 13 11 10 8 7 7 7 8 9 9 10 11 11 12 12 12 12 11 11 10 10 9 8 7 6 5 4 4 3 3 4 4 4 4
22 21 20 19 18 17 21 24 24 22 20 18 17 16 15 14 12 10 9 8 8 8 8 9 9 10 11 12 12 13 13 13 13 12 12 11 10 10 9 8 7 6 6 5 5 6 5 5 5
22 21 21 20 19 22 25 25 24 23 21 19 17 16 16 14 12 10 10 9 9 9 8 8 9 10 11 12 12 13 14 14 14 14 13 13 13 12 11 11 10 9 8 8 8 8 8 7 6
21 21 20 19 20 23 25 26 25 24 22 20 18 17 16 14 13 11 10 10 9 9 9 9 10 10 11 12 13 14 14 15 14 14 15 14 14 14 13 13 12 11 11 10 10 10 10 9 8
20 21 20 19 21 23 26 27 26 24 23 21 19 19 17 15 14 14 12 11 10 9 10 10 10 11 12 13 15 15 15 16 16 16 16 16 16 15 15 14 14 14 13 13 12 12 12 11 10
20 20 20 21 22 24 27 27 27 25 24 23 21 20 19 16 16 15 14 13 12 11 10 11 11 12 13 14 15 16 16 17 18 18 18 18 18 17 17 16 16 16 16 15 15 14 14 13 12
19 20 20 21 22 25 27 27 27 26 26 24 22 22 20 18 17 16 15 15 14 13 12 12 12 13 14 15 16 17 18 18 18 19 20 20 20 20 19 19 18 17 17 17 17 16 15 15 14
18 19 20 22 23 25 26 27 27 26 26 25 24 23 21 19 19 18 17 16 15 14 13 14 14 14 14 15 16 18 19 20 20 20 20 20 21 21 21 20 19 19 19 18 18 17 17 17 17
18 18 21 22 23 24 26 27 27 26 26 26 25 24 22 21 20 20 20 18 17 16 16 15 15 15 16 16 17 18 18 19 20 20 21 22 22 21 22 21 21 21 20 20 19 19 19 19 18
17 19 20 21 22 23 25 27 27 26 27 26 25 24 23 22 22 22 21 20 19 18 17 17 17 17 17 18 19 19 19 20 20 20 21 22 22 22 22 22 22 22 22 22 21 21 21 20 20
16 18 19 20 21 23 24 25 26 26 27 26 26 25 25 24 23 23 24 23 21 21 20 19 19 19 20 20 20 20 20 21 21 22 22 23 24 24 23 23 23 23 23 23 23 22 22 22 22
15 16 18 19 21 23 23 24 24 25 25 25 25 25 26 25 25 24 24 23 22 22 22 22 22 22 22 22 22 22 22 22 23 22 23 24 25 25 25 25 25 25 24 25 24 23 24 24 23
15 15 17 19 20 21 22 23 23 24 24 25 24 25 25 25 25 25 24 24 24 24 24 23 23 23 23 23 24 24 23 23 23 24 24 25 26 26 27 26 26 26 25 25 25 24 24 24 24
14 14 16 18 19 20 20 22 23 24 24 24 24 24 25 25 25 25 25 25 24 25 24 24 24 24 24 24 25 25 25 25 25 25 26 26 26 26 28 27 27 27 27 26 26 26 26 25 25
13 13 14 17 17 18 18 19 23 23 23 24 24 25 26 25 25 26 26 26 26 26 25 25 25 25 25 25 25 25 26 26 26 26 26 26 26 27 28 29 28 29 29 28 28 27 27 26 26
13 12 14 16 16 17 17 19 21 22 22 23 23 24 24 25 25 25 25 25 26 26 26 26 26 26 26 26 25 25 26 26 26 25 25 26 27 27 28 28 28 29 30 29 29 28 27 27 27
13 13 14 15 16 16 16 18 19 20 21 22 22 23 24 24 24 24 25 24 25 26 26 26 26 26 26 26 26 26 26 27 26 25 25 26 26 26 26 26 27 29 29 29 29 29 29 28 28
14 13 14 16 15 15 15 16 16 17 18 19 20 21 22 23 24 24 24 25 25 25 26 26 25 26 26 26 26 26 27 27 27 26 25 26 26 26 27 28 27 26 26 27 29 30 29 28 28
12 12 13 15 14 14 14 14 14 15 16 17 17 18 20 21 23 23 24 24 24 25 26 26 26 25 25 25 26 26 26 27 26 26 25 25 25 25 25 27 27 26 25 26 27 29 30 30 30
11 11 12 14 13 13 14 14 15 15 16 16 17 18 19 20 21 22 23 24 24 25 25 26 25 25 25 25 25 25 26 26 26 26 26 25 25 25 24 25 25 26 26 26 26 27 29 30 30
11 12 12 12 11 12 12 11 15 15 16 16 17 18 19 20 21 22 23 23 24 24 25 25 25 25 25 25 24 25 25 25 26 26 26 26 26 26 26 26 25 25 26 26 27 26 27 28 28
12 11 11 11 11 11 12 11 15 15 16 16 17 18 18 20 20 21 22 23 24 24 25 25 25 25 25 25 25 25 25 25 25 25 25 25 26 26 26 26 26 26 26 26 27 27 27 27 28
10 10 10 9 9 9 12 11 13 14 15 15 16 17 18 19 20 21 22 23 23 23 24 25 25 25 25 25 25 25 25 25 25 26 25 25 25 26 26 26 27 27 27 27 27 28 29 28 28
9 8 7 7 8 10 12 11 13 14 14 15 16 16 17 18 19 20 21 22 22 22 22 24 24 24 24 24 25 25 25 25 26 26 26 26 26 26 26 27 28 28 28 28 28 27 28 28 28
9 9 8 8 9 10 12 12 13 13 14 15 16 17 18 18 19 19 20 21 22 23 23 23 23 23 23 24 25 25 26 26 26 26 26 26 26 27 28 28 28 28 29 29 28 27 27 27 28
11 10 10 9 9 9 11 13 14 14 15 16 17 18 19 19 19 20 20 21 21 22 22 23 22 23 24 24 25 26 26 27 26 26 25 26 27 28 28 29 28 28 28 28 28 28 28 28 29
11 11 11 9 9 9 11 13 15 16 16 18 18 19 19 19 20 21 21 21 21 21 22 22 22 23 24 24 24 25 25 25 25 26 27 26 27 28 29 29 29 29 29 29 29 29 29 28 28
11 11 11 11 11 11 11 13 16 16 17 18 18 19 19 19 20 21 21 22 22 22 22 22 22 22 23 23 23 23 23 24 24 25 26 26 26 27 28 28 28 28 29 30 29 29 28 28 28
12 12 11 11 12 12 12 15 16 17 17 17 17 18 19 20 21 21 22 22 23 22 22 21 22 22 22 22 22 23 23 23 24 24 25 25 26 26 27 27 27 28 28 28 28 27 27 28 29
Wind_Direction
258 255 252 248 244 241 236 240 241 239 236 231 224 220 219 217 212 215 220 218 217 211 199 198 200 201 205 212 218 221 225 224 222 220 219 216 213 210 211 217 223 234 257 307 333 334 337 342 346
257 255 251 248 243 238 237 239 238 238 237 234 227 225 227 226 224 226 225 224 224 219 208 206 209 211 213 217 222 224 227 230 230 228 227 225 224 223 225 229 233 243 256 272 287 299 307 315 322
256 254 251 247 241 229 232 237 238 238 235 233 232 231 233 234 232 233 233 233 227 223 220 219 220 221 222 222 225 228 230 232 234 234 233 232 232 232 234 237 241 248 256 264 273 281 286 292 299
255 253 249 245 239 232 234 236 237 236 235 233 233 233 235 234 235 237 240 243 241 238 233 229 229 229 227 226 229 232 235 236 237 238 238 237 238 239 240 241 244 250 256 261 265 272 274 274 280
253 251 248 242 236 234 234 236 236 234 234 232 232 235 236 234 239 244 246 249 253 252 247 241 238 238 235 233 235 237 239 240 241 241 241 240 240 242 243 245 246 250 253 257 260 264 267 267 269
252 249 246 240 236 233 233 234 235 235 234 233 233 235 236 240 244 249 253 255 259 264 258 250 248 246 245 245 244 243 243 243 243 244 243 243 243 244 245 247 249 252 254 255 257 260 262 263 263
251 248 244 239 236 232 233 234 234 234 232 232 232 235 239 244 248 252 257 261 266 269 267 260 255 253 252 252 249 249 248 248 246 245 245 245 245 246 247 248 252 255 255 256 258 258 259 261 260
250 247 243 239 235 234 234 234 234 233 232 233 232 235 239 244 251 255 261 264 268 272 272 268 261 258 258 257 255 254 252 252 249 247 246 247 248 249 250 251 253 256 256 257 256 256 258 259 258
249 244 241 238 235 236 234 234 235 235 235 235 236 238 242 246 251 256 260 264 267 270 272 270 265 262 259 256 255 256 258 254 251 251 249 250 251 252 253 254 254 254 256 257 257 256 257 259 259
246 241 239 238 236 236 235 234 235 235 236 237 237 241 244 250 254 260 263 264 268 270 271 271 269 267 263 262 259 258 260 256 254 254 255 253 253 254 254 256 256 256 257 257 256 256 256 257 259
244 241 241 238 237 237 236 235 236 235 236 237 239 242 245 250 254 259 262 263 267 270 270 270 270 270 268 267 266 263 257 256 256 258 257 254 253 253 255 258 259 259 258 257 257 256 255 256 259
243 242 240 237 236 235 236 236 236 237 238 241 241 245 248 252 256 260 262 268 269 269 271 272 271 270 269 269 268 266 262 258 257 257 255 253 253 254 256 259 259 258 258 258 259 259 257 257 258
242 240 238 236 235 235 236 236 237 239 241 243 244 247 251 254 260 262 265 266 269 269 270 272 271 268 269 270 269 266 265 262 260 258 257 257 257 256 258 259 259 261 259 258 259 260 259 260 261
239 238 236 234 234 234 235 237 237 239 241 243 245 248 252 257 261 264 266 271 274 274 275 276 273 271 270 270 269 268 266 264 262 260 259 260 259 258 259 260 262 261 260 258 259 260 260 260 262
233 235 236 236 235 235 235 237 239 241 242 243 246 250 253 258 263 267 271 272 274 275 276 275 274 272 270 270 270 271 267 268 263 262 260 261 261 260 260 260 261 261 260 259 259 260 262 262 262
228 229 234 237 235 236 235 239 241 243 244 246 249 252 255 260 264 267 270 272 273 274 275 274 273 272 272 271 272 273 270 269 267 266 262 261 261 261 260 259 260 259 259 259 259 260 260 261 261
225 223 229 240 236 238 235 239 245 246 247 249 252 255 259 263 264 267 270 272 272 273 274 273 273 273 272 271 270 271 271 271 271 269 266 264 263 262 259 257 258 259 258 257 256 257 259 260 260
221 221 229 238 238 238 239 244 248 249 249 252 256 259 262 263 266 267 270 270 271 272 273 273 272 272 271 270 268 268 269 268 269 270 269 267 267 264 259 258 261 260 258 256 255 257 258 258 259
218 221 229 237 239 241 244 249 250 250 251 255 259 262 263 265 267 268 269 269 270 271 271 271 271 270 269 269 268 268 267 266 265 267 267 265 265 263 261 262 264 261 258 255 254 254 253 255 257
221 223 231 239 241 243 246 250 253 254 257 259 261 263 265 266 267 268 269 270 270 270 270 270 270 269 269 268 268 268 267 266 264 264 265 267 265 264 264 263 262 258 258 256 253 251 251 254 256
220 220 231 241 245 248 251 255 255 257 258 261 263 266 268 270 270 270 271 272 270 270 269 270 270 269 268 268 268 268 266 266 264 263 264 265 265 264 263 263 260 258 256 255 254 250 250 252 253
221 226 233 241 246 252 253 255 263 259 260 265 268 269 269 269 271 271 272 272 273 271 271 271 270 269 268 267 267 267 264 264 264 262 262 263 263 261 260 262 260 258 256 254 253 253 253 251 252
222 231 237 242 243 250 258 251 263 264 265 268 270 271 271 271 272 273 273 274 274 273 271 270 268 268 267 267 267 266 264 264 263 263 261 261 261 260 259 260 259 257 255 254 254 253 254 253 254
225 230 236 244 249 252 254 257 263 267 269 271 273 275 274 275 274 275 276 276 275 275 272 268 268 268 268 266 265 265 264 263 262 262 261 260 260 259 259 257 256 256 255 256 254 253 253 254 255
224 225 237 245 248 254 258 258 261 267 270 271 276 278 279 279 279 279 278 276 276 276 273 270 269 268 267 266 265 265 264 263 263 262 262 261 260 258 257 256 254 255 256 256 256 254 253 253 254
229 222 222 236 244 256 264 264 264 270 273 275 279 282 282 282 282 282 282 279 278 277 276 273 272 270 268 267 266 266 265 265 265 264 262 262 261 258 257 255 254 255 255 256 256 254 253 252 253
233 227 225 236 248 257 263 267 271 271 275 280 284 285 284 284 285 286 286 286 284 279 276 275 274 272 271 270 268 267 266 265 264 264 263 263 262 261 258 256 255 254 255 256 256 254 254 254 253
229 234 240 246 256 261 271 277 276 276 279 284 286 286 285 285 287 289 289 288 287 285 282 280 279 276 274 274 272 271 267 265 265 262 262 263 262 260 258 256 254 253 255 255 256 256 256 255 254
239 242 248 253 257 264 274 274 276 280 285 288 289 287 285 286 287 290 290 291 289 287 285 284 282 279 278 277 275 272 268 266 264 260 260 261 262 260 259 259 258 257 257 257 256 256 255 255 256
240 244 251 258 267 272 278 281 282 286 289 293 293 290 287 288 289 291 291 292 292 291 290 287 284 282 281 280 278 275 271 267 263 261 259 260 261 261 261 260 260 259 259 259 257 256 256 257 257
Height
5886 5887 5889 5891 5893 5894 5894 5893 5893 5895 5896 5898 5900 5901 5902 5903 5904 5906 5904 5902 5903 5903 5903 5904 5905 5905 5906 5906 5907 5908 5909 5910 5910 5910 5910 5910 5910 5911 5911 5912 5912 5912 5913 5913 5913 5913 5912 5912 5912
5882 5884 5886 5888 5890 5892 5891 5889 5890 5891 5893 5895 5897 5898 5899 5900 5900 5901 5900 5901 5901 5901 5901 5902 5903 5904 5905 5905 5906 5906 5907 5908 5908 5909 5909 5909 5909 5910 5910 5911 5911 5911 5912 5912 5912 5912 5911 5911 5911
5878 5879 5882 5884 5886 5888 5887 5885 5887 5888 5891 5893 5895 5896 5897 5898 5898 5898 5899 5899 5899 5899 5899 5900 5901 5902 5903 5903 5904 5905 5905 5906 5906 5907 5907 5908 5908 5908 5909 5909 5910 5910 5910 5910 5910 5910 5910 5910 5909
5873 5876 5878 5881 5882 5882 5881 5882 5883 5886 5888 5891 5893 5894 5895 5896 5896 5897 5897 5897 5897 5897 5898 5898 5899 5900 5900 5901 5902 5903 5904 5904 5904 5905 5905 5906 5906 5907 5907 5908 5908 5909 5909 5909 5909 5909 5909 5908 5908
5869 5872 5874 5876 5877 5877 5877 5878 5880 5883 5885 5888 5890 5891 5892 5893 5894 5894 5894 5895 5895 5896 5896 5896 5897 5898 5898 5899 5900 5901 5901 5902 5902 5903 5903 5903 5904 5904 5905 5906 5906 5907 5907 5907 5907 5907 5907 5907 5906
5866 5868 5871 5872 5872 5873 5873 5875 5877 5880 5883 5885 5887 5889 5889 5890 5891 5892 5892 5893 5893 5893 5894 5894 5894 5895 5896 5897 5897 5898 5898 5899 5899 5900 5900 5901 5901 5902 5902 5903 5904 5904 5905 5905 5905 5905 5905 5905 5904
5863 5864 5866 5867 5868 5869 5869 5871 5874 5877 5880 5882 5884 5886 5886 5888 5889 5890 5890 5890 5890 5891 5891 5891 5892 5892 5893 5893 5894 5894 5895 5895 5896 5896 5897 5898 5898 5899 5900 5900 5901 5902 5902 5902 5902 5902 5902 5902 5902
5858 5860 5861 5863 5864 5865 5866 5868 5871 5874 5876 5879 5882 5883 5884 5885 5886 5887 5887 5887 5888 5888 5888 5888 5889 5889 5890 5890 5891 5891 5891 5892 5892 5893 5893 5894 5895 5896 5896 5897 5898 5898 5899 5899 5899 5899 5900 5900 5900
5854 5857 5857 5858 5860 5861 5863 5865 5867 5870 5873 5876 5878 5879 5881 5882 5883 5884 5884 5884 5884 5885 5885 5885 5885 5885 5886 5886 5887 5887 5887 5887 5888 5889 5889 5890 5891 5892 5892 5893 5894 5894 5895 5896 5896 5896 5896 5896 5897
5850 5852 5853 5854 5856 5857 5859 5862 5864 5868 5870 5872 5874 5875 5877 5879 5880 5880 5881 5881 5881 5881 5881 5882 5882 5882 5882 5883 5883 5883 5883 5883 5884 5884 5885 5886 5887 5887 5888 5889 5889 5890 5891 5891 5892 5892 5892 5893 5893
5846 5848 5848 5850 5851 5854 5856 5858 5861 5864 5866 5869 5871 5872 5874 5875 5876 5877 5877 5877 5877 5877 5877 5878 5878 5878 5879 5879 5879 5879 5879 5879 5879 5880 5880 5881 5882 5882 5883 5884 5885 5885 5886 5887 5887 5888 5888 5888 5889
5842 5843 5844 5846 5848 5850 5852 5855 5858 5860 5863 5865 5868 5869 5871 5872 5872 5873 5873 5873 5873 5873 5873 5874 5874 5874 5874 5874 5874 5874 5874 5874 5873 5874 5875 5875 5876 5877 5878 5879 5880 5880 5881 5882 5882 5883 5883 5884 5884
5839 5840 5841 5843 5845 5847 5849 5852 5854 5856 5859 5861 5864 5866 5867 5868 5868 5869 5869 5869 5869 5869 5869 5870 5870 5870 5870 5869 5869 5869 5868 5868 5869 5868 5869 5870 5871 5872 5873 5873 5874 5875 5876 5876 5877 5878 5878 5879 5879
5836 5837 5838 5840 5842 5844 5847 5849 5851 5853 5855 5858 5859 5861 5862 5863 5864 5864 5864 5864 5864 5865 5865 5865 5865 5865 5865 5865 5864 5863 5863 5863 5863 5863 5864 5865 5866 5866 5867 5868 5869 5869 5870 5871 5871 5872 5873 5873 5874
5833 5835 5836 5837 5839 5841 5844 5846 5848 5849 5851 5853 5855 5856 5857 5858 5859 5859 5860 5860 5860 5860 5860 5860 5860 5860 5860 5860 5859 5858 5858 5858 5858 5858 5859 5860 5860 5860 5861 5862 5863 5863 5864 5865 5865 5866 5867 5868 5868
5830 5833 5835 5835 5837 5839 5843 5844 5844 5845 5847 5849 5851 5852 5853 5854 5854 5855 5855 5855 5855 5855 5854 5855 5855 5854 5854 5854 5854 5853 5853 5853 5853 5853 5853 5854 5854 5854 5854 5855 5856 5856 5857 5858 5860 5860 5861 5862 5862
5828 5831 5833 5833 5834 5836 5839 5840 5840 5842 5843 5845 5846 5847 5848 5849 5849 5849 5849 5849 5849 5849 5849 5849 5849 5848 5848 5848 5848 5848 5847 5847 5847 5847 5847 5848 5848 5848 5848 5848 5849 5850 5851 5852 5853 5854 5855 5856 5856
5827 5829 5829 5830 5831 5833 5835 5836 5837 5838 5839 5841 5841 5842 5843 5843 5843 5843 5843 5843 5843 5843 5842 5842 5842 5842 5842 5842 5842 5842 5841 5841 5841 5841 5841 5842 5842 5842 5842 5842 5843 5843 5844 5845 5846 5847 5848 5849 5850
5823 5825 5826 5827 5828 5830 5831 5832 5833 5834 5835 5836 5837 5837 5838 5838 5838 5837 5837 5837 5837 5836 5836 5836 5836 5836 5835 5835 5835 5835 5835 5835 5835 5835 5835 5835 5836 5836 5836 5836 5837 5837 5838 5838 5839 5840 5841 5843 5844
5820 5822 5824 5824 5826 5827 5828 5829 5830 5831 5831 5832 5832 5832 5832 5832 5832 5832 5831 5831 5830 5830 5830 5829 5829 5829 5829 5829 5828 5828 5828 5828 5828 5829 5829 5829 5830 5830 5830 5830 5830 5831 5832 5832 5832 5833 5834 5836 5837
5817 5820 5821 5822 5823 5824 5826 5827 5827 5827 5828 5828 5828 5828 5827 5827 5827 5826 5825 5825 5824 5824 5824 5823 5822 5822 5822 5822 5822 5821 5821 5821 5822 5822 5823 5823 5823 5824 5824 5824 5824 5825 5825 5825 5825 5827 5828 5829 5831
5815 5816 5818 5819 5821 5822 5824 5826 5824 5824 5824 5824 5824 5823 5822 5822 5821 5820 5820 5819 5818 5817 5817 5817 5816 5816 5816 5815 5815 5815 5815 5815 5815 5815 5816 5816 5817 5817 5818 5818 5818 5818 5819 5819 5819 5821 5821 5822 5823
5812 5814 5815 5817 5819 5820 5821 5823 5823 5820 5820 5820 5819 5818 5817 5817 5816 5815 5814 5813 5812 5811 5810 5810 5809 5809 5809 5809 5808 5808 5808 5808 5808 5808 5809 5809 5810 5810 5811 5812 5811 5812 5812 5813 5813 5814 5815 5816 5816
5809 5812 5813 5814 5817 5819 5818 5819 5820 5817 5816 5815 5815 5814 5813 5812 5810 5809 5808 5807 5806 5805 5804 5803 5803 5802 5802 5802 5801 5801 5802 5802 5802 5802 5802 5802 5803 5803 5804 5804 5805 5805 5806 5806 5807 5807 5808 5809 5810
5808 5811 5813 5815 5816 5817 5815 5815 5815 5813 5811 5811 5810 5809 5808 5806 5805 5804 5802 5801 5800 5798 5797 5797 5796 5796 5795 5795 5795 5795 5795 5795 5795 5795 5795 5796 5796 5796 5797 5797 5798 5799 5799 5800 5800 5801 5801 5802 5803
5806 5809 5813 5814 5815 5814 5811 5811 5810 5808 5807 5807 5806 5804 5803 5801 5800 5798 5797 5795 5794 5792 5791 5790 5790 5789 5789 5788 5788 5788 5788 5788 5788 5788 5788 5789 5789 5789 5790 5790 5791 5791 5792 5793 5794 5794 5795 5795 5796
5803 5805 5808 5809 5810 5810 5809 5807 5806 5805 5804 5802 5801 5800 5798 5797 5795 5793 5791 5790 5787 5785 5784 5784 5783 5783 5782 5782 5781 5781 5781 5781 5781 5781 5781 5782 5782 5782 5782 5783 5784 5784 5785 5786 5787 5787 5788 5788 5789
5801 5802 5803 5806 5806 5807 5807 5805 5804 5801 5800 5798 5796 5795 5793 5791 5790 5788 5786 5784 5782 5780 5779 5778 5777 5776 5776 5775 5775 5774 5774 5774 5774 5774 5775 5775 5775 5775 5775 5776 5777 5778 5778 5779 5780 5780 5781 5782 5783
5798 5799 5800 5802 5802 5803 5803 5804 5798 5797 5795 5794 5791 5790 5788 5786 5785 5782 5780 5778 5776 5775 5773 5772 5771 5770 5769 5769 5768 5767 5767 5767 5767 5767 5768 5768 5768 5769 5769 5769 5770 5771 5771 5772 5773 5773 5774 5774 5775
5794 5795 5797 5798 5798 5798 5798 5800 5794 5792 5790 5788 5786 5784 5782 5781 5779 5777 5775 5773 5770 5769 5767 5765 5764 5763 5762 5762 5761 5761 5760 5760 5760 5760 5761 5761 5761 5762 5762 5762 5763 5764 5764 5765 5766 5766 5767 5768 5768